User: anonymous   Login
Location: Fauquembergues
(50.6005°N, 2.0987°E)
Time: 19:46:28
(UTC+00:00)
Language:

ADEOS II - Orbit

View from above orbital plane
View from above orbital plane
View from above satellite
View from above satellite

Ground track
Ground track

The orbit data is extracted from the following two-line orbital elements,

1 27597U 02056A   20270.47333505  .00000029  00000-0  29093-4 0  9992
2 27597  98.5281 215.5590 0002087  69.8583 290.2822 14.27460676926227
Epoch (UTC): 26 September 2020 11:21:36
Eccentricity: 0.0002087
inclination: 98.5281°
perigee height: 799 km
apogee height: 802 km
right ascension of ascending node: 215.5590°
argument of perigee: 69.8583°
revolutions per day: 14.27460676
mean anomaly at epoch: 290.2822°
orbit number at epoch: 92622

The dashed part of the orbit path shows where the satellite is in the earth's shadow,  

DLR